• în Republica Moldova
  • Lista ţărilor
  • Pe 7 zile
  • Temperatura apei
  • Hartă satelitară
  • Meteo pe hartă
  • Widget-uri
  • user-avatar
    Intrare

    Meteo pe oră la Shaki

    Astăzi, 18 Noiembrie, Sâmbătă

    Timp Temperatura Precipitaţii Vânt Presiune Umiditate
    00:00 +10°C° 0 mm 2 m/s 742 mmHg 85%
    01:00 +10°C° 0 mm 2 m/s 742 mmHg 83%
    02:00 +10°C° 0 mm 2 m/s 742 mmHg 82%
    03:00 +11°C° 0 mm 1 m/s 741 mmHg 79%
    04:00 +11°C° 0 mm 1 m/s 741 mmHg 77%
    05:00 +11°C° 0 mm 1 m/s 741 mmHg 74%
    06:00 +11°C° 0 mm 1 m/s 741 mmHg 72%
    07:00 +11°C° 0 mm 1 m/s 741 mmHg 69%
    08:00 +12°C° 0 mm 1 m/s 741 mmHg 66%
    09:00 +13°C° 0 mm 1 m/s 741 mmHg 63%
    10:00 +13°C° 0 mm 1 m/s 741 mmHg 62%
    11:00 +14°C° 0 mm 1 m/s 740 mmHg 60%
    12:00 +14°C° 0 mm 1 m/s 740 mmHg 59%
    13:00 +14°C° 0 mm 1 m/s 740 mmHg 58%
    14:00 +14°C° 0 mm 2 m/s 739 mmHg 58%
    15:00 +15°C° 0 mm 2 m/s 739 mmHg 57%
    16:00 +13°C° 0 mm 2 m/s 739 mmHg 60%
    17:00 +12°C° 0 mm 1 m/s 739 mmHg 63%
    18:00 +11°C° 0 mm 1 m/s 739 mmHg 66%
    19:00 +11°C° 0 mm 1 m/s 739 mmHg 65%
    20:00 +11°C° 0 mm 1 m/s 739 mmHg 64%
    21:00 +11°C° 0 mm 1 m/s 739 mmHg 62%
    22:00 +11°C° 0 mm 1 m/s 738 mmHg 61%
    23:00 +10°C° 0 mm 1 m/s 738 mmHg 60%

    Mâine, 19 Noiembrie, Duminică

    Timp Temperatura Precipitaţii Vânt Presiune Umiditate
    00:00 +10°C° 0 mm 1 m/s 738 mmHg 59%
    01:00 +10°C° 0 mm 1 m/s 738 mmHg 58%
    02:00 +9°C° 0 mm 2 m/s 738 mmHg 57%
    03:00 +9°C° 0 mm 2 m/s 737 mmHg 55%
    04:00 +9°C° 0 mm 2 m/s 737 mmHg 55%
    05:00 +9°C° 0 mm 2 m/s 737 mmHg 54%
    06:00 +9°C° 0 mm 2 m/s 737 mmHg 53%
    07:00 +12°C° 0 mm 2 m/s 737 mmHg 49%
    08:00 +13°C° 0 mm 1 m/s 737 mmHg 45%
    09:00 +14°C° 0 mm 1 m/s 736 mmHg 42%
    10:00 +16°C° 0 mm 2 m/s 736 mmHg 38%
    11:00 +17°C° 0 mm 2 m/s 736 mmHg 35%
    12:00 +18°C° 0 mm 2 m/s 735 mmHg 31%
    13:00 +18°C° 0 mm 2 m/s 735 mmHg 32%
    14:00 +18°C° 0 mm 2 m/s 735 mmHg 32%
    15:00 +18°C° 0 mm 2 m/s 734 mmHg 32%
    16:00 +17°C° 0 mm 2 m/s 734 mmHg 34%
    17:00 +16°C° 0 mm 2 m/s 734 mmHg 36%
    18:00 +14°C° 0 mm 2 m/s 734 mmHg 38%
    19:00 +14°C° 0 mm 1 m/s 734 mmHg 39%
    20:00 +14°C° 0 mm 1 m/s 734 mmHg 40%
    21:00 +14°C° 0 mm 1 m/s 734 mmHg 40%
    22:00 +14°C° 0 mm 1 m/s 734 mmHg 41%
    23:00 +14°C° 0 mm 2 m/s 734 mmHg 43%

    Poimâine, 20 Noiembrie, Luni

    Timp Temperatura Precipitaţii Vânt Presiune Umiditate
    00:00 +14°C° 0 mm 2 m/s 733 mmHg 44%
    01:00 +14°C° 0 mm 2 m/s 733 mmHg 44%
    02:00 +14°C° 0 mm 2 m/s 733 mmHg 45%
    03:00 +13°C° 0 mm 2 m/s 733 mmHg 45%
    04:00 +12°C° 0 mm 3 m/s 733 mmHg 45%
    05:00 +12°C° 0 mm 3 m/s 733 mmHg 45%
    06:00 +12°C° 0 mm 3 m/s 733 mmHg 45%
    07:00 +13°C° 0 mm 3 m/s 733 mmHg 42%
    08:00 +14°C° 0 mm 3 m/s 733 mmHg 39%
    09:00 +17°C° 0 mm 3 m/s 733 mmHg 36%
    10:00 +18°C° 0 mm 3 m/s 733 mmHg 33%
    11:00 +19°C° 0 mm 4 m/s 733 mmHg 30%
    12:00 +20°C° 0 mm 4 m/s 732 mmHg 27%
    13:00 +20°C° 0 mm 4 m/s 732 mmHg 28%
    14:00 +20°C° 0 mm 4 m/s 732 mmHg 28%
    15:00 +20°C° 0 mm 3 m/s 732 mmHg 28%
    16:00 +18°C° 0 mm 3 m/s 732 mmHg 31%
    17:00 +17°C° 0 mm 3 m/s 732 mmHg 34%
    18:00 +14°C° 0 mm 3 m/s 732 mmHg 36%
    19:00 +14°C° 0 mm 3 m/s 732 mmHg 38%
    20:00 +14°C° 0 mm 3 m/s 732 mmHg 39%
    21:00 +14°C° 0 mm 3 m/s 731 mmHg 41%
    22:00 +14°C° 0 mm 2 m/s 731 mmHg 41%
    23:00 +14°C° 0 mm 2 m/s 731 mmHg 42%

    21 Noiembrie, Marţi

    Timp Temperatura Precipitaţii Vânt Presiune Umiditate
    00:00 +14°C° 0 mm 2 m/s 731 mmHg 42%
    01:00 +14°C° 0 mm 2 m/s 730 mmHg 42%
    02:00 +13°C° 0 mm 2 m/s 730 mmHg 42%
    03:00 +12°C° 0 mm 3 m/s 730 mmHg 42%
    04:00 +13°C° 0 mm 2 m/s 730 mmHg 43%
    05:00 +13°C° 0 mm 2 m/s 729 mmHg 44%
    06:00 +13°C° 0 mm 2 m/s 729 mmHg 45%
    07:00 +14°C° 0 mm 2 m/s 729 mmHg 42%
    08:00 +15°C° 0 mm 2 m/s 729 mmHg 39%
    09:00 +17°C° 0 mm 2 m/s 729 mmHg 37%
    10:00 +18°C° 0 mm 3 m/s 728 mmHg 34%
    11:00 +19°C° 0 mm 3 m/s 728 mmHg 32%
    12:00 +20°C° 0 mm 3 m/s 727 mmHg 29%
    13:00 +19°C° 0 mm 3 m/s 727 mmHg 31%
    14:00 +19°C° 0 mm 2 m/s 727 mmHg 32%
    15:00 +19°C° 0 mm 2 m/s 726 mmHg 33%
    16:00 +17°C° 0 mm 2 m/s 726 mmHg 35%
    17:00 +16°C° 0 mm 2 m/s 726 mmHg 37%
    18:00 +15°C° 0 mm 2 m/s 726 mmHg 39%
    19:00 +15°C° 0 mm 2 m/s 726 mmHg 39%
    20:00 +15°C° 0 mm 2 m/s 726 mmHg 39%
    21:00 +14°C° 0 mm 2 m/s 726 mmHg 39%
    22:00 +14°C° 0 mm 2 m/s 726 mmHg 40%
    23:00 +14°C° 0 mm 2 m/s 727 mmHg 41%

    22 Noiembrie, Miercuri

    Timp Temperatura Precipitaţii Vânt Presiune Umiditate
    00:00 +14°C° 0 mm 2 m/s 727 mmHg 42%
    01:00 +14°C° 0 mm 2 m/s 727 mmHg 43%
    02:00 +13°C° 0 mm 3 m/s 727 mmHg 44%
    03:00 +12°C° 0 mm 3 m/s 727 mmHg 46%
    04:00 +12°C° 0 mm 3 m/s 727 mmHg 48%
    05:00 +11°C° 0 mm 3 m/s 728 mmHg 50%
    06:00 +11°C° 0 mm 4 m/s 728 mmHg 53%
    07:00 +11°C° 0 mm 4 m/s 728 mmHg 53%
    08:00 +12°C° 0 mm 4 m/s 729 mmHg 53%
    09:00 +12°C° 0 mm 5 m/s 730 mmHg 53%
    10:00 +12°C° 0,2 mm 5 m/s 730 mmHg 54%
    11:00 +12°C° 0,2 mm 5 m/s 730 mmHg 56%
    12:00 +10°C° 0,2 mm 5 m/s 730 mmHg 58%
    13:00 +11°C° 0,8 mm 4 m/s 730 mmHg 62%
    14:00 +10°C° 0,8 mm 4 m/s 731 mmHg 67%
    15:00 +9°C° 0,8 mm 3 m/s 731 mmHg 71%
    16:00 +9°C° 0,3 mm 3 m/s 732 mmHg 72%
    17:00 +9°C° 0,3 mm 2 m/s 732 mmHg 72%
    18:00 +8°C° 0,3 mm 2 m/s 732 mmHg 73%
    19:00 +8°C° 0 mm 2 m/s 733 mmHg 71%
    20:00 +7°C° 0 mm 2 m/s 733 mmHg 70%
    21:00 +7°C° 0 mm 2 m/s 733 mmHg 68%
    22:00 +6°C° 0 mm 2 m/s 733 mmHg 63%
    23:00 +6°C° 0 mm 2 m/s 733 mmHg 58%

    23 Noiembrie, Joi

    Timp Temperatura Precipitaţii Vânt Presiune Umiditate
    00:00 +6°C° 0 mm 2 m/s 734 mmHg 53%
    01:00 +5°C° 0 mm 2 m/s 734 mmHg 52%
    02:00 +5°C° 0 mm 2 m/s 734 mmHg 50%
    03:00 +5°C° 0 mm 2 m/s 734 mmHg 49%
    04:00 +5°C° 0 mm 2 m/s 734 mmHg 49%
    05:00 +5°C° 0 mm 2 m/s 734 mmHg 50%
    06:00 +5°C° 0 mm 2 m/s 734 mmHg 50%
    07:00 +6°C° 0 mm 2 m/s 735 mmHg 49%
    08:00 +6°C° 0 mm 2 m/s 735 mmHg 48%
    09:00 +7°C° 0 mm 2 m/s 736 mmHg 47%
    10:00 +7°C° 0,1 mm 3 m/s 736 mmHg 48%
    11:00 +7°C° 0,1 mm 3 m/s 736 mmHg 49%
    12:00 +8°C° 0,1 mm 3 m/s 736 mmHg 50%
    13:00 +8°C° 0,1 mm 3 m/s 736 mmHg 52%
    14:00 +8°C° 0,1 mm 3 m/s 736 mmHg 53%
    15:00 +8°C° 0,1 mm 3 m/s 736 mmHg 54%
    16:00 +7°C° 0,1 mm 2 m/s 737 mmHg 56%
    17:00 +7°C° 0,1 mm 2 m/s 737 mmHg 59%
    18:00 +7°C° 0,1 mm 1 m/s 738 mmHg 61%
    19:00 +7°C° 0,1 mm 1 m/s 738 mmHg 62%
    20:00 +7°C° 0,1 mm 1 m/s 739 mmHg 63%
    21:00 +6°C° 0,1 mm 1 m/s 739 mmHg 64%
    22:00 +6°C° 0,1 mm 1 m/s 739 mmHg 64%
    23:00 +6°C° 0,1 mm 1 m/s 739 mmHg 65%
    Arată mai mult